Location: �terpigny
(49.8910°N, 2.9249°E)
Time: 11:39:08
(UTC+00:00)

IRAS Rocket - Pass Details

Date: 24 October 2021
Orbit: 847 x 878 km, 100.1° (Epoch: 05 December)

Event Time Altitude Azimuth Distance (km) Brightness Sun altitude
Rises 18:01:58 0° 21° (NNE) 3,458 7.2 -13.9°
Reaches altitude 10° 18:04:28 10° 27° (NNE) 2,511 6.4 -14.3°
Maximum altitude 18:09:49 46° 101° (E) 1,140 4.4 -15.2°
Drops below altitude 10° 18:15:04 10° 174° (S) 2,475 6.6 -16.0°
Sets 18:17:31 0° 180° (S) 3,403 7.4 -16.4°
